Home   Weather   Aalborg   Past weeks

Flag for Denmark Past Weather in Aalborg, Denmark — Yesterday and Last 2 Weeks

Now
61 °F

Light rain. Overcast.


Feels Like: 61 °F
Forecast: 58 / 62 °F
Wind: 26 mph from Southwest

Location: Aalborg Airport

Current Time: Sep 28, 2016 at 12:26:34 AM

Latest Report: Sep 27, 2016 at 11:50 PM


Visibility: 4 mi

Pressure: 29.92 "Hg

Humidity: 88%

Dew Point: 57 °F

Location of AalborgLocation

Past Weather in Aalborg — Graph

°F

Aalborg Temperature Yesterday

Maximum temperature yesterday: 68 °F (at 2:20 PM)
Minimum temperature yesterday: 45 °F (at 7:20 AM)
Average temperature yesterday: 58 °F

High & Low Weather Summary for the Past Weeks

 TemperatureHumidityPressure
High79 °F (Sep 13, 4:20 PM)100% (Sep 13, 12:20 AM)30.27 "Hg (Sep 13, 12:20 AM)
Low45 °F (Sep 20, 6:50 AM)42% (Sep 15, 2:20 PM)29.95 "Hg (Sep 16, 3:50 PM)
Average61 °F80%30.13 "Hg
* Reported Sep 12 11:20 PM — Sep 27 11:20 PM, Aalborg, Weather by CustomWeather, © 2016

Note: Actual official high and low records may vary slightly from our data, if they occured in-between our weather recording intervals... More about our weather records

Advertising

Aalborg Weather History for the Previous 24 Hours

Scroll right to see more
 ConditionsComfort  
Time TempWeatherWind HumidityBarometerVisibility
11:20 PM
Tue, Sep 27
63 °FOvercast.28 mph73%29.95 "HgN/A
10:50 PM63 °FOvercast.23 mph73%29.98 "HgN/A
10:20 PM61 °FOvercast.20 mph77%29.98 "HgN/A
9:50 PM61 °FOvercast.24 mph83%30.01 "HgN/A
9:20 PM61 °FLight rain. Overcast.22 mph83%30.01 "Hg4 mi
8:50 PM63 °FPassing clouds.18 mph68%30.04 "HgN/A
8:20 PM63 °FPassing clouds.20 mph68%30.04 "HgN/A
8:00 PM63 °FPassing clouds.18 mph68%30.07 "HgN/A
7:20 PM64 °FPassing clouds.14 mph64%30.07 "HgN/A
6:50 PM64 °FPartly sunny.10 mph64%30.09 "HgN/A
6:20 PM64 °FPartly sunny.10 mph60%30.09 "HgN/A
5:50 PM64 °FSunny.10 mph60%30.12 "Hg10 mi
5:20 PM66 °FPartly sunny.12 mph56%30.12 "HgN/A
4:50 PM66 °FBroken clouds.13 mph56%30.12 "HgN/A
4:20 PM66 °FBroken clouds.15 mph52%30.15 "HgN/A
3:50 PM68 °FScattered clouds.15 mph49%30.15 "HgN/A
3:20 PM68 °FScattered clouds.13 mph49%30.18 "HgN/A
2:50 PM68 °FScattered clouds.13 mph53%30.18 "HgN/A
2:20 PM68 °FPassing clouds.12 mph53%30.18 "HgN/A
1:50 PM66 °FPassing clouds.10 mph56%30.21 "HgN/A
1:20 PM66 °FPassing clouds.10 mph56%30.24 "HgN/A
12:50 PM66 °FPassing clouds.9 mph52%30.24 "HgN/A
12:20 PM64 °FPassing clouds.9 mph60%30.24 "HgN/A
11:50 AM64 °FPassing clouds.7 mph64%30.24 "HgN/A
11:20 AM63 °FPassing clouds.5 mph73%30.24 "HgN/A
10:50 AM59 °FSunny.5 mph88%30.24 "Hg10 mi
10:20 AM57 °FSunny.2 mph94%30.27 "Hg10 mi
9:50 AM55 °FSunny.No wind100%30.24 "Hg10 mi
9:20 AM54 °FFog.No wind100%30.24 "HgN/A
8:50 AM52 °FFog.No wind100%30.24 "HgN/A
8:20 AM48 °FFog.1 mph100%30.24 "Hg1 mi
7:50 AM48 °FFog.No wind100%30.24 "Hg1 mi
7:20 AM45 °FLight fog.3 mph100%30.24 "Hg1 mi
6:50 AM48 °FLight fog.6 mph100%30.27 "Hg1 mi
6:20 AM46 °FFog.No wind100%30.27 "Hg0 mi
5:50 AM48 °FFog.No wind100%30.24 "Hg0 mi
5:20 AM48 °FFog.No wind100%30.24 "Hg0 mi
4:50 AM48 °FFog.5 mph100%30.24 "Hg0 mi
4:20 AM52 °FLight fog.2 mph94%30.24 "Hg0 mi
3:50 AM52 °FLight fog.No wind100%30.24 "Hg0 mi
3:20 AM52 °FFog.3 mph100%30.24 "Hg0 mi
2:50 AM52 °FFog.No wind94%30.24 "Hg0 mi
2:20 AM54 °FLight fog.No wind94%30.24 "Hg0 mi
1:50 AM54 °FLight fog.3 mph100%30.24 "Hg0 mi
1:20 AM52 °FLight fog.3 mph100%30.24 "Hg0 mi
12:50 AM54 °FLight fog.No wind94%30.24 "Hg0 mi
12:20 AM48 °FLight fog.1 mph100%30.24 "Hg0 mi
Weather by CustomWeather, © 2016

See weather overviewHow to use our weather pages